Regional Weather Roundup
Issued by NWS

Home | Current Version | Previous Version | Text Only | Print | Product List | Glossary On
Versions: 1 2 3 4 5 6 7 8 9 10 11 12 13 14 15 16 17 18 19 20 21 22 23 24 25 26 27
000
ASUS42 KFFC 010503
RWRGA
WEATHER ROUNDUP FOR GEORGIA
NATIONAL WEATHER SERVICE PEACHTREE CITY GA
100 AM EDT SUN MAY 01 2016

NOTE: "FAIR" INDICATES FEW OR NO CLOUDS BELOW 12,000 FEET WITH NO
SIGNIFICANT WEATHER AND/OR OBSTRUCTIONS TO VISIBILITY.

* = USE WITH CAUTION. THE STATIONS MARKED WITH AN ASTERISK MAY NOT
REPORT WEATHER SUCH AS PRECIPITATION, FOG, OR THUNDER AND ARE NOT
QUALITY CONTROLLED BY NWS.

THE REMARK "TC" DENOTES TEMPERATURE READING IN DEGREES CELSIUS.

GAZ001>058-010600-
NORTH GEORGIA

CITY           SKY/WX    TMP DP  RH WIND       PRES   REMARKS
ATLANTA        CLOUDY    69  65  86 SE7       29.99R
ATHENS         CLOUDY    67  67 100 CALM      30.01F
CHAMBLEE       CLOUDY    68  66  93 E3        30.01R
PEACHTREE CITY CLOUDY    68  67  96 SE5       29.99R
ROME           CLOUDY    68  64  87 CALM      29.97R
WEST ATLANTA   CLOUDY    67  65  93 NE5       29.99R
GAINESVILLE    CLOUDY    65  64  97 E9        30.04S THUNDER
CARTERSVILLE   CLOUDY    69  64  84 SE3       29.99R


CITY           SKY/WX    TMP DP  RH WIND       PRES   REMARKS
DALTON*        CLOUDY    66  66 100 CALM      29.97S
MARIETTA       CLOUDY    68  67  96 E3        30.00R
CANTON*        CLOUDY    68  64  88 E3        30.03R
BLAIRSVILLE*     N/A    N/A N/A N/A MISG      30.05R
$$

GAZ059>098-102>109-010600-
CENTRAL GEORGIA

CITY           SKY/WX    TMP DP  RH WIND       PRES   REMARKS
AUGUSTA-BUSH   CLOUDY    73  67  81 SE6       30.03S
AUGUSTA-DANIEL CLOUDY    74  66  76 SE9       30.04F
COLUMBUS       CLOUDY    76  63  64 S8        29.94F
MACON          CLOUDY    71  66  84 S7        30.00R
ROBINS AFB     CLOUDY    70  68  95 SE8       30.00R


CITY           SKY/WX    TMP DP  RH WIND       PRES   REMARKS
LAGRANGE*      CLOUDY    72  72  98 CALM      29.96S
SYLVANIA*        N/A     73  71  92 CALM      30.06S
MILLEDGEVILLE* CLOUDY    70  68  94 CALM      30.00F FOG
$$

GAZ099>101-110>166-010600-
SOUTH GEORGIA

CITY           SKY/WX    TMP DP  RH WIND       PRES   REMARKS
SAVANNAH       CLOUDY    76  69  79 SE12      30.05S
VALDOSTA       CLOUDY    68  68 100 CALM      30.01S FOG
ALMA           CLOUDY    71  69  93 SE6       30.02S
ST SIMONS      CLOUDY    74  72  93 SE7       30.04S
FT STEWART     CLOUDY    73  72  94 CALM      30.02F
ALBANY         CLOUDY    76  66  71 S6        30.02R
HUNTER AFB     CLOUDY    75  73  93 SE7       30.02F
MOODY AFB      CLOUDY    70  67  91 SE3       30.00F
BRUNSWICK      CLOUDY    79  73  83 SE6       30.05R


CITY           SKY/WX    TMP DP  RH WIND       PRES   REMARKS
BAINBRIDGE*    MOCLDY    73  70  88 S3        30.00S
MOULTRIE*      MOCLDY    72  66  83 CALM      30.03S
VIDALIA*       MOCLDY    73  70  88 SE6       30.03S
WAYCROSS*      CLOUDY    74  71  90 SE7       30.03S
DOUGLAS*       CLOUDY    72  70  94 CALM      30.03F
$$




USA.gov is the U.S. government's official web portal to all federal, state and local government web resources and services.